Konya, Turkey

12:11 PM +03 on May 25, 2017 (GMT +0300)
Konya Air Base

Weather History for LTAN - December, 2012

Change the Weather History Date:

Sunday, December 9, 2012

  Actual Average Record
Temperature  
Mean Temperature 40 °F -  
Max Temperature 52 °F 43 °F 55 °F (2005)
Min Temperature 27 °F 27 °F 13 °F (2013)
Degree Days  
Heating Degree Days 26    
Moisture  
Dew Point 34 °F    
Average Humidity 79    
Maximum Humidity 100    
Minimum Humidity 46    
Precipitation  
Precipitation 0.00 in 0.06 in - ()
Sea Level Pressure  
Sea Level Pressure 29.99 in    
Wind  
Wind Speed 6 mph ()    
Max Wind Speed 16 mph    
Max Gust Speed -    
Visibility 6.2 miles    
Events Rain    
Averages and records for this station are not official NWS values.
T = Trace of Precipitation, MM = Missing Value Source: Averaged Metar Reports

Daily Weather History Graph

Daily Weather History Graph

Search for Another Location

Airport or City:

Trip Planner

Search our weather history database for the weather conditions in past years. The results will help you decide how hot, cold, wet, or windy it might be!

Date:

Astronomy

Dec. 09, 2012 Rise Set
Actual Time 6:54 AM EET 4:30 PM EET
Civil Twilight 6:24 AM EET 4:59 PM EET
Nautical Twilight 5:51 AM EET 5:32 PM EET
Astronomical Twilight 5:20 AM EET 6:04 PM EET
Moon 2:07 AM EET (12/9) 1:21 PM EET (12/9)
Length of Visible Light 10h 34m
Length of Day
9h 36m
Waning Crescent, 21% of the Moon is Illuminated
Dec 9
Waning Crescent
Dec 13
New
Dec 20
First Quarter
Dec 28
Full
Jan 5
Last Quarter

Hourly Weather History & Observations

Time (EET) Temp. Windchill Dew Point Humidity Pressure Visibility Wind Dir Wind Speed Gust Speed Precip Events Conditions
12:50 AM 33.8 °F 28.6 °F 30.2 °F 87% 30.06 in 6.2 mi SSW 5.8 mph - N/A   Partly Cloudy
1:50 AM 32.0 °F 28.7 °F 28.4 °F 87% 30.06 in 6.2 mi Variable 3.5 mph - N/A   Partly Cloudy
2:50 AM 33.8 °F 29.6 °F 30.2 °F 87% 30.06 in 6.2 mi SSE 4.6 mph - N/A   Partly Cloudy
3:50 AM 30.2 °F - 28.4 °F 93% 30.06 in 6.2 mi Calm Calm - N/A   Partly Cloudy
5:50 AM 28.4 °F - 26.6 °F 93% 30.04 in 3.7 mi SE 2.3 mph - N/A   Partly Cloudy
6:50 AM 28.4 °F - 28.4 °F 100% 30.06 in 3.7 mi SSE 2.3 mph - N/A   Scattered Clouds
7:50 AM 28.4 °F 24.6 °F 28.4 °F 100% 30.06 in 3.7 mi ESE 3.5 mph - N/A   Partly Cloudy
8:00 AM 29 °F - 29 °F 99%  in 4 mi ESE 3.5 mph - -   Mist
8:50 AM 33.8 °F - 30.2 °F 87% 30.06 in - Variable 1.2 mph - N/A   Scattered Clouds
9:50 AM 39.2 °F 35.9 °F 33.8 °F 81% 30.06 in 3.7 mi South 4.6 mph - N/A   Scattered Clouds
10:50 AM 42.8 °F 37.5 °F 32.0 °F 66% 30.04 in 6.2 mi South 9.2 mph - N/A   Scattered Clouds
11:50 AM 44.6 °F 38.8 °F 35.6 °F 71% 30.01 in 6.2 mi SSE 11.5 mph - N/A   Scattered Clouds
12:50 PM 48.2 °F - 35.6 °F 62% 29.98 in 6.2 mi South 12.7 mph - N/A   Scattered Clouds
1:50 PM 51.8 °F - 37.4 °F 58% 29.98 in 6.2 mi South 13.8 mph - N/A   Scattered Clouds
2:00 PM 51 °F - 36 °F 46%  in 12 mi South 13.8 mph - -   Partly Cloudy
2:50 PM 51.8 °F - 33.8 °F 50% 29.95 in 6.2 mi South 16.1 mph - N/A   Mostly Cloudy
3:50 PM 48.2 °F - 35.6 °F 62% 29.95 in 6.2 mi South 6.9 mph - N/A   Mostly Cloudy
4:50 PM 44.6 °F 38.8 °F 37.4 °F 76% 29.95 in 6.2 mi SSE 11.5 mph - N/A   Mostly Cloudy
5:50 PM 44.6 °F 38.4 °F 37.4 °F 76% 29.95 in 6.2 mi South 12.7 mph - N/A   Mostly Cloudy
6:50 PM 44.6 °F 38.4 °F 37.4 °F 76% 29.95 in 6.2 mi South 12.7 mph - N/A   Mostly Cloudy
7:50 PM 44.6 °F 38.1 °F 37.4 °F 76% 29.92 in 6.2 mi South 13.8 mph - N/A   Mostly Cloudy
8:00 PM 44 °F - 38 °F 74%  in 12 mi South 13.8 mph - - Rain Light Rain Showers
8:50 PM 44.6 °F 38.1 °F 37.4 °F 76% 29.92 in 6.2 mi South 13.8 mph - N/A   Mostly Cloudy
9:50 PM 42.8 °F 36.2 °F 39.2 °F 87% 29.92 in 6.2 mi South 12.7 mph - N/A Rain Light Rain
10:50 PM 42.8 °F 37.5 °F 39.2 °F 87% 29.92 in 6.2 mi South 9.2 mph - N/A Rain Light Rain
11:50 PM 42.8 °F 36.6 °F 39.2 °F 87% 29.89 in 6.2 mi South 11.5 mph - N/A   Mostly Cloudy